Location: Auckland
(36.8670°S, 174.7670°E)
Time: 20:52:29
(UTC+12:00)

Tiros 1 despin weight - Pass Details

Date: 27 July 2019
Orbit: 594 x 642 km, 48.2° (Epoch: 18 August)

Event Time Altitude Azimuth Distance (km) Brightness Sun altitude
Rises 01:57:20 0° 236° (SW) 2,857 - -63.7°
Reaches altitude 10° 02:00:06 10° 220° (SW) 1,956 - -63.3°
Maximum altitude 02:03:34 21° 169° (S) 1,361 - -62.7°
Drops below altitude 10° 02:07:03 10° 118° (ESE) 1,965 - -62.1°
Sets 02:09:49 0° 102° (ESE) 2,875 - -61.6°
